Addison, TX

9:15 AM CDT on September 30, 2016 (GMT -0500)
Addison

Weather History for KADS - November, 2013

Change the Weather History Date:

Saturday, November 23, 2013

  Actual Average Record
Temperature  
Mean Temperature 38 °F -  
Max Temperature 41 °F 61 °F 80 °F (2005)
Min Temperature 35 °F 45 °F 35 °F (2007)
Degree Days  
Heating Degree Days 27    
Moisture  
Dew Point 33 °F    
Average Humidity 85    
Maximum Humidity 100    
Minimum Humidity 54    
Precipitation  
Precipitation 0.00 in - - ()
Sea Level Pressure  
Sea Level Pressure 30.50 in    
Wind  
Wind Speed 11 mph (North)    
Max Wind Speed 16 mph    
Max Gust Speed 24 mph    
Visibility 8 miles    
Events Rain    
Averages and records for this station are not official NWS values.
T = Trace of Precipitation, MM = Missing Value Source: NWS Daily Summary

Daily Weather History Graph

Daily Weather History Graph

Search for Another Location

Airport or City:

Trip Planner

Search our weather history database for the weather conditions in past years. The results will help you decide how hot, cold, wet, or windy it might be!

Date:

Astronomy

Nov. 23, 2013 Rise Set
Actual Time 7:05 AM CST 5:22 PM CST
Civil Twilight 6:38 AM CST 5:48 PM CST
Nautical Twilight 6:08 AM CST 6:18 PM CST
Astronomical Twilight 5:38 AM CST 6:48 PM CST
Moon 10:44 PM CST (11/23) 11:28 AM CST (11/23)
Length of Visible Light 11h 09m
Length of Day
10h 16m
Waning Gibbous, 69% of the Moon is Illuminated
Nov 23
Waning Gibbous
Nov 25
Last Quarter
Dec 2
New
Dec 9
First Quarter
Dec 17
Full

Hourly Weather History & Observations

Time (CST) Temp. Windchill Dew Point Humidity Pressure Visibility Wind Dir Wind Speed Gust Speed Precip Events Conditions
12:15 AM 36.3 °F 28.9 °F 36.3 °F 100% 30.46 in 10.0 mi North 10.4 mph 19.6 mph N/A   Overcast
12:35 AM 36.0 °F 27.5 °F 36.0 °F 100% 30.46 in 10.0 mi North 12.7 mph 20.7 mph N/A   Overcast
12:55 AM 36.0 °F 27.1 °F 36.0 °F 100% 30.45 in 10.0 mi North 13.8 mph 23.0 mph N/A   Overcast
1:15 AM 35.8 °F 27.3 °F 35.8 °F 100% 30.45 in 10.0 mi North 12.7 mph 21.9 mph N/A   Overcast
1:35 AM 35.8 °F 26.5 °F 35.8 °F 100% 30.45 in 10.0 mi North 15.0 mph 20.7 mph N/A   Overcast
1:55 AM 35.8 °F 28.8 °F 35.8 °F 100% 30.46 in 10.0 mi North 9.2 mph - N/A   Overcast
2:15 AM 36.0 °F 29.0 °F 36.0 °F 100% 30.46 in 10.0 mi North 9.2 mph - N/A   Overcast
2:35 AM 36.3 °F 28.9 °F 36.3 °F 100% 30.46 in 10.0 mi North 10.4 mph 18.4 mph N/A   Overcast
2:55 AM 36.1 °F 28.2 °F 36.1 °F 100% 30.46 in 10.0 mi North 11.5 mph 19.6 mph N/A   Overcast
3:15 AM 36.5 °F 30.3 °F 36.5 °F 100% 30.46 in 10.0 mi North 8.1 mph - N/A   Overcast
3:35 AM 36.5 °F 29.2 °F 36.5 °F 100% 30.46 in 10.0 mi North 10.4 mph - N/A   Overcast
3:55 AM 36.3 °F 30.1 °F 36.3 °F 100% 30.47 in 3.0 mi North 8.1 mph 18.4 mph N/A   Overcast
4:15 AM 36.1 °F 28.2 °F 36.1 °F 100% 30.47 in 2.5 mi North 11.5 mph - N/A Rain Light Rain
4:35 AM 36.1 °F 27.7 °F 36.1 °F 100% 30.47 in 2.5 mi North 12.7 mph 19.6 mph N/A Rain Light Rain
4:55 AM 36.3 °F 28.4 °F 36.3 °F 100% 30.47 in 2.5 mi North 11.5 mph - N/A Rain Light Rain
5:47 AM 35.6 °F 27.1 °F 33.8 °F 93% 30.47 in 2.5 mi NNW 12.7 mph 24.2 mph N/A Rain Light Rain
6:47 AM 35.6 °F 27.5 °F 35.6 °F 100% 30.49 in 2.0 mi North 11.5 mph 16.1 mph N/A Rain Light Rain
7:47 AM 35.6 °F 26.2 °F 35.6 °F 100% 30.50 in 2.0 mi North 15.0 mph - N/A   Overcast
8:49 AM 37.4 °F 28.2 °F 37.4 °F 100% 30.53 in 1.5 mi North 16.1 mph 23.0 mph N/A Rain Light Rain
9:50 AM 37.4 °F 29.8 °F 33.8 °F 87% 30.54 in 1.5 mi North 11.5 mph 18.4 mph N/A   Overcast
10:47 AM 37.4 °F 29.8 °F 33.8 °F 87% 30.55 in 5.0 mi North 11.5 mph 19.6 mph N/A   Overcast
11:47 AM 37.4 °F 29.8 °F 33.8 °F 87% 30.53 in 7.0 mi North 11.5 mph 19.6 mph N/A   Overcast
12:47 PM 39.2 °F 31.6 °F 33.8 °F 81% 30.50 in 5.0 mi North 12.7 mph 19.6 mph N/A   Overcast
1:15 PM 39.2 °F 30.5 °F 35.6 °F 87% 30.49 in 5.0 mi North 16.1 mph 21.9 mph N/A   Overcast
2:30 PM 41.0 °F 33.9 °F 33.8 °F 76% 30.51 in 10.0 mi North 12.7 mph 16.1 mph N/A   Overcast
2:47 PM 41.0 °F 34.7 °F 33.8 °F 76% 30.50 in 10.0 mi North 10.4 mph 18.4 mph N/A   Overcast
3:47 PM 41.0 °F 34.7 °F 33.8 °F 76% 30.50 in 10.0 mi North 10.4 mph 16.1 mph N/A   Overcast
4:55 PM 41.0 °F 33.5 °F 32.0 °F 70% 30.50 in 10.0 mi North 13.8 mph 19.6 mph N/A   Mostly Cloudy
5:47 PM 41.0 °F 34.7 °F 30.2 °F 65% 30.52 in 10.0 mi North 10.4 mph 21.9 mph N/A   Mostly Cloudy
9:15 PM 39.2 °F 35.0 °F 28.2 °F 65% 30.55 in 10.0 mi North 5.8 mph - N/A   Clear
9:35 PM 39.2 °F 33.0 °F 27.5 °F 63% 30.55 in 10.0 mi NNE 9.2 mph - N/A   Clear
9:55 PM 39.2 °F 33.6 °F 26.2 °F 60% 30.55 in 10.0 mi NNE 8.1 mph - N/A   Clear
10:15 PM 38.8 °F 31.6 °F 24.4 °F 56% 30.55 in 10.0 mi NE 11.5 mph - N/A   Clear
10:35 PM 38.5 °F 34.1 °F 23.7 °F 55% 30.56 in 10.0 mi NE 5.8 mph 9.2 mph N/A   Clear
10:55 PM 38.3 °F 33.9 °F 23.0 °F 54% 30.55 in 10.0 mi NE 5.8 mph - N/A   Clear
11:15 PM 37.4 °F 32.1 °F 23.7 °F 58% 30.55 in 10.0 mi NNE 6.9 mph - N/A   Clear
11:35 PM 37.0 °F 32.4 °F 23.9 °F 59% 30.55 in 10.0 mi NNE 5.8 mph - N/A   Clear
11:55 PM 36.9 °F 31.4 °F 23.9 °F 59% 30.55 in 10.0 mi NNE 6.9 mph - N/A   Clear